sat.trackr.live / text

‹ back to catalog

STARLINK-36849

NORAD 68304 · 2026-057L

PAYLOAD ACTIVE UNKNOWN

§ Identity

Operator
Country
US
Launch date
2026-03-20
Launch site
AFWTR
Launch vehicle
Mass (kg)
RCS (m²)

Purposes: comms

External: N2YO · Heavens-Above · Gunter

§ Orbital elements

Epoch: 2026-09-20T01:42:33.511680Z

Period
93.91 min
Inclination
97.2847°
Eccentricity
0.0000499
Mean motion
15.33455487 rev/d
Perigee alt
465.2 km
Apogee alt
465.9 km
Semi-major
6,843.6 km
B*
6.8337e-4
RAAN
28.4111°
Arg perigee
108.8250°
Mean anomaly
251.3047°
Rev number
2,844

§ Raw data

STARLINK-368491 68304U 26057L   26263.07122120  .00022058  00000+0  68337-3 0  99912 68304  97.2847  28.4111 0000499 108.8250 251.3047 15.33455487 28448

JSON: /api/v1/satellites/68304 · /tle

For live sub-satellite position, see the globe view (requires WebGL).

§ Visibility from observer

Set your observer location to see the next 7 days of passes ≥ 10°. The values pass through the URL so the page stays shareable.

No JS? Fill the form by hand. The geolocation button needs JavaScript.